weather.gov     
National Weather Service

Terminal Aerodrome Forecast
NWS Homepage
This page is being discontinued on March 12, 2014.
The same data is available at this site. Please update your bookmarks.
Thank you, and we apologize for the inconvenience.
Please send an email to SR-SRH.Webmaster@noaa.gov with any concerns.


Current Version
Previous Version:    01  02  03  04  05  06  07  08  09  10  11  12  13  14  15  16  17  18  19  20  21  22  23  24  25  26  27  
[Printable]
732
FTUS45 KSLC 252340
TAFOGD
TAF
KOGD 252340Z 2600/2624 17015G22KT P6SM SCT120 BKN200
     FM260100 18010G16KT P6SM SCT090
     FM260900 29008KT P6SM VCSH SCT050 BKN080
     FM261800 29012G18KT P6SM VCSH SCT040 BKN070=




732
FTUS45 KSLC 252340
TAFOGD
TAF
KOGD 252340Z 2600/2624 17015G22KT P6SM SCT120 BKN200
     FM260100 18010G16KT P6SM SCT090
     FM260900 29008KT P6SM VCSH SCT050 BKN080
     FM261800 29012G18KT P6SM VCSH SCT040 BKN070=


U.S. Dept. of Commerce
NOAA National Weather Service
1325 East West Highway
Silver Spring, MD 20910
E-mail: w-nws.webmaster@noaa.gov
Page last modified: May 16, 2007
NATIONAL WEATHER SERVICE: for Safety, for Work, for Fun - FOR LIFE